GFSNGP_con_mlcape_096.txt.gz
CAPE
0 0 0 0 0 0 0 1 38 42 221 33 177 95 68 155 69 102 1076 1034 1164 867 691 570 488 457 238 141 91 92 147 106 100 3 13 11 0 0 339 1354 1323 1123 1131 1375
0 0 1 0 0 3 12 59 20 261 356 248 416 502 584 883 640 593 602 829 778 767 922 880 751 536 761 563 215 406 375 93 9 0 0 0 0 0 845 1284 1368 1258 1235 1132
1 5 8 4 186 161 147 51 115 249 507 366 365 716 933 906 767 698 613 668 743 641 563 635 819 817 462 329 212 64 206 503 102 20 14 43 141 389 993 1245 1468 1330 1087 1124
4 11 11 157 153 49 208 541 644 582 132 51 10 116 226 63 81 403 515 480 823 518 456 486 747 914 476 399 504 556 471 715 557 192 89 14 5 1 572 952 1103 924 792 925
11 28 60 73 0 6 181 438 525 467 256 156 0 0 21 0 0 38 247 296 636 522 356 437 452 548 552 432 678 649 641 596 583 612 368 165 23 279 594 631 343 593 1007 1230
62 7 48 57 0 1 346 233 376 157 154 200 13 10 0 11 3 82 239 194 137 112 98 185 273 198 163 113 94 94 202 282 642 707 327 119 308 285 149 136 170 213 289 338
120 9 75 95 152 389 130 183 196 77 4 57 0 1 8 6 122 145 172 129 76 70 117 157 82 102 94 54 26 31 17 35 28 137 287 396 342 354 76 51 128 276 457 529
168 139 69 300 239 199 167 405 203 183 3 0 16 7 79 91 122 155 100 56 39 27 7 1 3 22 10 5 7 25 38 1 0 0 1 42 169 346 401 403 328 452 449 441
148 174 462 465 518 538 461 552 286 317 19 65 80 154 136 118 113 119 117 68 33 8 0 1 0 0 0 0 0 0 1 18 38 0 0 2 27 74 117 195 412 485 497 432
260 183 233 414 375 444 548 440 167 0 158 136 210 165 191 119 86 57 43 32 8 5 4 5 1 0 0 0 0 0 0 0 0 8 0 2 25 10 28 63 110 118 138 141
216 43 167 366 606 397 92 82 124 118 117 102 148 118 74 101 102 112 96 18 13 13 8 11 8 10 5 1 0 0 0 0 1 1 2 102 16 0 0 3 0 2 8 48
41 52 501 538 449 57 0 0 0 24 16 120 143 66 119 135 70 60 45 32 25 13 15 15 14 10 8 1 1 0 0 0 0 0 0 0 28 30 2 0 2 0 0 0
28 7 626 74 129 19 1 0 4 71 69 67 45 292 244 307 296 48 9 1 6 15 16 6 9 1 0 0 0 0 0 0 0 0 0 0 0 15 27 16 2 0 0 0
6 213 631 273 233 124 16 2 29 47 60 54 45 27 158 320 364 177 34 12 12 22 9 29 8 8 0 0 0 0 0 0 0 3 0 0 0 5 13 11 18 8 0 0
0 57 557 311 225 11 47 109 85 42 32 46 28 64 56 40 74 26 29 14 16 27 24 3 2 7 0 0 0 0 0 0 0 0 0 0 0 0 6 35 8 1 7 0
202 117 332 237 34 0 52 69 173 42 21 6 18 12 41 18 34 17 18 12 8 7 0 0 9 1 0 0 1 0 0 0 0 0 0 0 0 24 41 116 24 27 15 4
77 357 252 126 204 21 17 75 84 84 35 61 39 6 4 29 64 62 46 41 16 18 6 8 0 0 0 0 0 0 0 0 7 3 19 21 34 41 75 148 128 47 11 0
131 41 0 17 25 176 5 179 119 104 465 342 212 91 64 55 35 127 86 67 39 12 4 0 0 0 0 0 0 0 0 0 1 4 0 4 6 43 137 154 151 16 6 0
40 0 0 5 2 127 234 562 564 340 273 333 148 122 79 88 92 82 74 86 4 21 0 0 0 0 1 0 0 0 0 0 0 1 0 19 46 39 31 111 174 11 0 0
69 3 1 0 572 574 520 489 312 98 36 11 2 0 13 113 50 125 240 134 36 11 0 0 0 0 0 0 0 0 0 0 0 6 5 16 38 30 49 63 17 4 3 0
176 406 338 204 175 180 62 2 0 0 0 2 22 28 12 8 0 0 0 18 61 0 0 0 0 0 0 0 0 0 0 7 0 12 2 2 21 148 208 221 86 75 7 2
340 214 108 25 9 8 7 0 3 8 34 15 7 7 8 7 18 17 22 40 17 0 0 0 0 0 0 0 0 0 1 13 20 29 0 1 14 129 172 306 239 182 183 8
80 172 112 36 23 3 8 25 27 44 19 28 16 21 16 13 11 27 61 178 63 0 0 0 0 0 0 0 0 0 0 18 20 14 23 22 7 50 253 242 127 256 147 16
17 43 51 52 64 96 139 60 17 33 45 19 75 217 139 59 54 58 46 36 14 4 2 4 0 0 0 0 0 0 5 14 4 0 6 4 5 22 80 266 271 307 85 9
0 8 40 84 130 62 11 41 40 22 78 39 69 78 75 228 101 66 59 80 26 0 16 15 0 0 0 0 0 0 15 15 10 5 2 5 0 8 47 39 220 191 95 21
0 0 7 6 116 43 40 30 32 22 25 49 30 21 17 28 42 43 119 67 20 26 43 60 10 0 0 1 7 1 1 2 14 24 13 29 19 14 30 38 48 55 48 33
0 0 1 23 16 31 32 38 12 35 13 24 3 31 23 17 41 30 34 107 123 256 42 22 90 40 11 2 11 14 18 31 44 23 35 39 39 72 41 54 18 31 44 58

GFSNGP_con_mlcape_102.txt.gz
CAPE
0 0 0 0 0 3 1 4 10 17 20 62 92 63 334 545 484 112 36 0 180 192 270 395 323 252 7 237 267 409 313 340 94 52 80 3 0 0 0 0 0 0 23 254
0 0 0 0 0 8 18 16 36 50 33 8 0 0 0 193 135 238 455 334 268 125 164 391 232 335 298 182 286 176 201 405 320 166 111 54 1 1 0 0 0 0 7 141
0 0 0 0 0 1 3 2 43 14 12 25 8 2 0 0 28 28 268 408 188 198 129 339 204 346 454 359 330 499 421 210 203 111 64 26 0 0 0 0 1 25 49 85
0 0 1 0 0 7 26 15 36 58 6 0 1 47 0 0 2 6 138 201 155 143 155 208 274 279 351 416 423 336 345 336 197 58 36 6 0 0 4 1 2 54 115 146
0 19 6 36 0 21 9 2 46 0 0 0 0 0 0 0 1 0 8 57 110 135 79 37 65 74 76 98 136 148 194 307 296 301 267 142 20 0 0 1 8 44 165 215
45 1 0 70 78 38 89 0 1 0 0 0 0 0 0 0 16 4 40 104 27 4 0 0 0 0 5 19 0 33 66 79 171 222 231 269 121 5 22 5 27 24 116 123
60 10 30 111 217 248 2 9 36 0 0 0 0 0 0 4 36 90 77 42 2 3 0 0 0 0 0 0 0 5 2 0 0 19 138 141 133 118 63 15 0 2 42 25
21 0 0 280 413 94 7 221 189 8 0 0 1 11 33 45 47 49 51 11 0 0 0 0 0 0 0 0 0 0 0 1 0 0 0 0 10 38 42 70 58 36 31 44
12 9 129 71 283 337 362 241 215 105 24 0 49 45 52 68 59 60 60 2 0 0 0 0 0 0 0 0 0 0 0 0 0 0 0 0 0 0 4 29 32 27 1 15
5 72 69 169 44 183 246 193 97 57 51 45 57 40 82 42 55 57 27 9 3 7 6 0 0 0 0 0 0 0 0 0 0 0 0 0 0 0 0 2 0 0 0 0
0 0 0 176 322 352 104 215 50 35 48 12 37 90 62 55 64 33 24 7 9 10 8 3 0 0 0 0 0 0 0 0 0 0 0 0 0 0 0 0 0 0 0 0
0 43 68 393 212 89 0 2 54 46 35 29 52 83 96 74 65 49 30 10 10 10 11 0 0 0 0 0 0 0 0 0 0 0 0 0 0 0 0 0 0 0 0 0
7 113 94 505 229 92 0 0 1 1 38 48 183 183 151 84 40 19 9 2 0 2 3 5 0 0 0 0 0 0 0 0 0 0 0 0 0 0 0 0 0 0 0 0
12 394 483 376 193 145 29 39 45 17 86 89 216 145 80 19 33 9 10 0 0 5 1 0 0 0 0 0 0 0 0 0 0 0 0 0 0 0 0 0 0 6 0 0
166 297 351 312 281 133 140 62 18 40 88 117 233 124 35 22 23 18 19 9 5 1 0 0 0 0 0 0 0 0 0 0 0 0 0 0 0 0 0 0 0 6 9 1
215 192 294 298 51 0 17 11 49 61 99 71 115 68 32 21 4 15 15 16 9 0 0 0 0 0 0 0 0 0 0 0 0 0 0 0 3 23 30 34 39 41 25 9
251 191 147 57 0 0 0 0 31 51 73 39 18 6 26 8 6 8 6 1 20 9 0 0 0 0 0 0 0 0 0 0 0 0 0 0 8 14 45 61 63 57 16 0
113 160 50 0 1 7 3 0 7 2 54 37 26 8 22 22 17 12 13 24 33 3 0 0 0 0 0 0 0 0 0 0 0 0 0 0 6 0 0 0 6 13 1 0
1 85 107 0 16 0 0 7 0 27 84 124 108 125 85 66 59 37 24 21 14 4 9 0 0 0 0 0 0 0 0 0 0 0 0 0 2 13 14 3 7 16 0 1
0 3 45 33 11 67 61 22 41 117 82 4 3 0 32 27 24 14 17 10 1 9 12 0 0 0 0 0 0 0 0 0 0 0 0 0 1 0 16 14 13 18 18 0
1 0 6 27 65 55 5 95 97 48 15 36 10 0 12 10 6 10 8 6 5 23 27 0 0 0 0 0 0 0 0 0 0 0 0 0 0 0 9 32 19 21 3 0
104 105 46 62 83 62 44 7 22 29 2 0 3 4 1 9 23 21 12 4 29 33 16 1 0 0 0 0 0 0 0 0 0 0 0 0 0 0 4 31 38 47 9 0
1 4 12 66 93 115 72 46 36 33 10 19 18 6 6 46 69 49 33 21 37 59 19 1 2 3 0 0 0 0 0 0 0 0 0 0 0 0 0 22 37 99 45 7
0 0 0 0 0 6 0 23 20 62 59 17 41 23 44 25 19 18 27 35 24 18 0 0 0 0 0 0 0 0 0 0 0 0 0 0 0 0 0 2 24 136 87 29
0 0 0 0 26 17 0 2 21 20 10 3 6 10 12 25 26 6 15 28 12 3 9 11 2 0 0 0 0 0 1 0 0 0 0 0 0 2 0 0 32 80 81 55
0 0 0 1 0 0 3 6 1 0 4 3 8 4 6 7 2 0 0 0 0 0 0 0 0 0 0 0 0 0 0 0 0 0 0 6 5 3 0 0 4 4 17 28
0 1 4 4 7 11 4 7 1 0 0 0 0 6 10 4 0 0 0 0 0 0 0 0 0 0 0 0 0 7 7 11 2 0 2 9 30 4 4 0 0 0 0 0

GFSNGP_con_mlcape_105.txt.gz
CAPE
0 0 0 0 0 0 0 0 0 0 0 1 16 0 0 4 180 135 321 256 335 266 278 336 373 358 97 88 189 115 95 16 0 0 0 0 0 0 0 61 15 1 44 67
0 0 0 0 0 0 0 0 0 1 4 49 14 0 0 0 0 0 47 510 470 323 289 209 122 216 36 83 48 278 394 487 327 74 1 4 0 0 0 0 0 0 0 0
0 0 0 0 0 0 0 1 4 0 0 3 0 0 0 0 0 0 0 261 240 314 360 266 224 265 205 207 265 301 194 227 214 221 177 87 10 0 0 0 1 0 0 0
0 0 0 0 0 4 8 37 42 40 48 0 0 0 0 0 0 0 16 113 236 152 163 155 155 153 192 225 236 239 289 185 49 26 14 4 3 0 10 3 0 0 0 0
0 0 0 16 35 43 6 0 6 39 0 0 0 0 0 0 8 2 17 68 130 105 38 42 33 24 26 48 70 101 119 116 132 134 87 9 0 0 0 1 0 0 1 7
0 19 22 1 17 115 101 0 95 5 1 0 0 0 0 0 16 6 40 61 14 0 0 0 0 0 0 0 0 0 0 21 55 101 113 119 59 0 0 0 1 7 76 76
44 35 13 22 157 317 3 0 107 66 0 0 0 0 0 36 32 66 37 53 5 0 0 0 0 0 0 0 0 0 0 0 0 0 13 32 86 58 37 47 32 24 39 80
11 15 0 194 383 110 36 71 216 225 49 0 0 13 16 23 42 51 41 31 3 3 0 0 0 0 0 0 0 0 0 0 0 0 0 0 7 20 54 57 32 39 44 64
18 39 39 159 329 201 101 33 19 215 126 10 0 49 35 26 46 42 69 78 70 7 2 0 0 0 0 0 0 0 0 0 0 0 0 0 0 0 1 3 17 14 14 7
15 9 56 123 312 242 8 107 264 151 83 85 39 46 25 65 50 65 54 36 30 26 5 0 0 0 0 0 0 0 0 0 0 0 0 0 0 0 0 0 0 0 0 0
37 11 4 50 3 245 194 353 266 62 123 56 26 46 73 68 41 44 44 15 13 7 4 2 0 0 0 0 0 0 0 0 0 0 0 0 0 0 0 0 0 0 0 0
0 0 0 97 252 350 253 15 155 51 0 42 109 64 89 59 61 53 40 13 5 0 0 0 0 0 0 0 0 0 0 0 0 0 0 0 0 0 0 0 0 0 0 0
0 0 4 72 463 292 19 0 35 18 16 65 177 133 120 83 59 45 16 6 2 1 3 0 0 0 0 0 0 0 0 0 0 0 0 0 0 0 0 0 0 0 0 0
0 0 73 368 319 264 28 114 25 13 13 37 135 87 109 119 81 43 22 17 23 26 0 0 0 0 0 0 0 0 0 0 0 0 0 0 0 0 0 0 0 0 0 0
233 160 282 456 230 145 101 83 43 60 79 112 138 128 103 39 31 28 37 21 24 8 0 0 0 0 0 0 0 0 0 0 0 0 0 0 0 0 0 0 0 0 5 2
159 181 273 358 237 127 139 85 59 30 11 70 70 109 149 77 25 31 47 31 24 10 4 0 0 0 0 0 0 0 0 0 0 0 0 0 0 0 0 7 30 36 30 24
270 254 211 244 185 15 11 42 64 68 20 54 56 38 75 53 12 18 19 16 21 23 9 2 0 0 0 0 0 0 0 0 0 0 0 0 0 0 0 0 0 0 0 0
136 150 64 0 4 0 0 3 8 46 16 25 59 68 33 36 18 28 33 36 18 9 3 0 0 0 0 0 0 0 0 0 0 0 0 0 0 0 0 0 0 0 0 0
36 122 49 9 3 9 0 3 0 1 30 51 100 100 61 60 56 47 50 19 3 0 3 3 0 0 0 0 0 0 0 0 0 0 0 0 0 0 0 4 4 0 0 0
0 0 11 15 14 0 13 47 19 28 25 74 13 23 35 27 22 4 1 0 0 0 0 9 0 0 0 0 0 0 0 0 0 0 0 0 0 0 0 0 7 9 0 0
0 10 7 51 128 67 12 56 19 39 30 1 5 11 26 8 10 8 2 0 0 0 2 16 0 0 0 0 0 0 0 0 0 0 0 0 0 0 0 0 0 4 31 11
23 47 16 34 58 45 54 11 4 21 34 5 0 1 2 2 17 20 9 8 13 30 24 5 0 0 0 0 0 0 0 0 0 0 0 0 0 0 0 0 0 0 15 36
0 0 6 16 35 37 26 11 4 9 9 15 19 29 29 45 51 54 22 17 20 8 4 0 0 2 6 1 0 0 0 0 0 0 0 0 0 0 0 0 0 0 0 37
0 0 0 0 6 9 3 3 11 0 12 28 38 42 34 21 16 5 8 13 4 3 0 1 0 0 0 0 0 0 0 0 0 0 0 0 0 0 0 0 0 0 0 4
0 0 0 0 5 3 3 3 0 0 5 8 1 9 19 7 6 0 0 0 0 0 0 0 0 0 0 0 0 0 0 0 0 0 0 0 0 8 8 0 0 0 3 10
0 1 3 0 0 0 3 0 0 0 0 0 5 2 1 0 0 0 0 0 0 0 0 0 0 0 0 0 0 0 0 0 0 0 0 0 0 1 8 3 0 0 0 0
5 1 3 2 5 1 4 7 7 5 0 4 2 0 0 0 0 0 0 0 0 0 0 0 0 0 0 0 0 0 1 0 0 0 0 0 0 1 2 0 0 0 0 1

GFSNGP_con_mlcape_111.txt.gz
CAPE
0 0 0 0 0 0 0 0 0 0 0 0 0 0 0 0 0 0 1 0 0 0 265 718 590 717 770 859 730 603 654 491 353 316 28 8 4 1 1 0 5 35 135 379
0 0 0 0 0 0 0 0 0 0 0 14 15 20 0 0 0 0 0 3 12 4 395 509 355 534 501 385 575 478 638 513 186 50 11 3 8 0 0 9 13 19 0 73
0 0 0 0 0 0 0 0 8 4 0 0 25 0 0 0 4 15 4 4 10 9 28 177 184 202 246 228 349 390 356 327 328 183 83 76 19 20 12 0 14 11 37 33
0 0 0 0 0 0 17 26 14 6 0 30 26 0 0 20 1 0 6 20 36 8 24 20 24 38 14 19 85 69 0 73 79 72 85 62 36 11 0 0 3 0 0 0
0 0 0 0 0 14 2 1 24 6 0 14 0 0 0 24 1 0 0 0 2 6 4 1 0 2 0 0 0 0 11 70 129 171 176 120 132 97 41 11 1 0 0 6
0 0 0 1 14 41 54 17 24 22 6 5 17 1 4 130 0 0 0 0 0 4 0 0 0 0 0 0 0 0 1 36 88 204 164 170 110 89 29 20 33 24 24 8
0 3 23 37 67 117 20 18 20 10 55 74 82 132 9 36 7 0 3 25 32 45 1 0 0 0 0 0 0 0 9 28 16 37 84 202 307 233 120 125 72 63 100 71
1 9 5 44 161 60 89 151 121 114 218 241 323 249 30 57 7 0 0 14 26 34 14 0 0 0 0 0 0 0 0 0 0 0 0 56 322 319 307 315 288 214 14 0
0 2 1 32 10 68 77 123 335 215 380 366 368 312 209 258 1 1 0 0 22 13 25 0 0 0 0 0 0 0 0 0 0 0 0 0 21 66 133 144 150 122 3 1
0 0 0 0 0 17 70 227 283 415 417 317 271 406 109 46 69 21 25 12 7 31 23 14 14 0 0 0 0 0 0 0 0 0 0 0 0 0 0 0 0 0 0 1
0 0 0 0 0 0 24 236 338 494 369 289 299 305 202 173 133 58 42 23 24 24 35 32 0 0 0 0 0 0 0 0 0 0 0 0 0 0 0 0 0 0 0 0
0 0 0 0 0 0 0 100 413 333 323 336 413 164 135 68 18 71 28 25 29 16 29 25 6 0 0 0 0 0 0 0 0 0 0 0 0 0 0 0 0 0 0 0
0 0 0 0 0 0 0 384 338 330 437 506 428 119 14 1 16 67 20 19 16 42 23 0 7 0 0 0 0 0 0 0 0 0 0 0 0 0 0 0 0 0 0 0
0 0 0 0 0 216 246 373 204 450 485 544 235 491 206 143 167 59 42 23 27 55 18 0 0 0 0 0 0 0 0 0 0 0 0 0 0 0 0 0 0 0 0 0
113 52 0 0 39 271 460 476 389 469 569 570 647 464 343 166 262 225 171 58 59 56 32 14 2 0 0 0 0 0 0 0 0 0 0 0 0 0 0 0 0 0 6 0
7 170 305 292 337 537 518 457 443 417 506 348 365 361 417 232 145 115 155 113 60 66 70 30 10 0 0 0 0 0 0 0 0 0 0 0 0 0 0 0 0 0 0 0
33 108 280 364 374 471 451 475 426 461 453 257 339 232 222 269 222 125 137 108 97 124 57 35 13 0 0 0 0 0 0 0 0 0 0 0 0 0 0 0 0 0 0 0
32 50 33 165 211 195 301 276 220 279 402 239 203 285 287 284 139 99 141 77 69 66 66 82 44 3 0 0 0 0 0 0 0 0 0 0 0 0 0 0 0 0 0 0
13 5 9 125 123 90 112 130 130 168 310 222 139 120 115 136 107 148 140 67 61 63 68 47 35 9 3 0 0 0 0 0 0 0 0 0 0 0 0 0 0 0 0 0
3 35 33 51 87 82 75 155 186 141 170 32 14 59 98 79 42 33 28 28 36 47 48 53 45 35 7 1 0 4 0 0 0 0 0 0 0 0 0 0 0 0 0 0
13 36 37 81 88 96 185 139 102 61 32 36 61 128 108 47 58 67 33 43 40 23 11 0 2 7 3 1 0 0 0 0 0 0 0 0 0 0 0 0 0 0 0 0
0 10 40 70 84 29 21 25 70 13 42 44 45 66 73 114 105 44 33 44 18 4 20 13 8 0 0 0 0 0 0 0 0 0 0 0 0 0 0 0 0 0 0 0
0 1 36 82 83 25 6 17 27 6 22 47 50 61 34 26 63 83 49 5 7 0 0 0 0 0 0 0 0 0 0 0 1 4 8 11 12 14 14 15 13 15 8 3
0 1 2 35 17 8 0 1 0 0 1 0 0 1 19 16 1 1 0 0 0 0 0 0 0 0 0 0 0 0 2 3 0 0 3 0 6 8 13 11 20 25 13 8
1 0 0 0 0 0 3 2 0 0 0 0 0 0 0 0 0 0 0 0 0 0 0 0 0 0 0 0 0 0 0 0 0 0 0 9 17 14 23 24 29 18 13 11
25 34 13 6 4 0 0 0 0 0 0 0 0 0 0 0 0 0 0 0 0 0 0 0 0 0 0 0 0 0 0 0 0 0 0 0 0 0 1 0 0 1 13 5
29 38 36 35 49 26 13 14 8 2 0 0 0 0 0 0 0 0 0 0 0 0 0 0 0 0 0 0 0 0 0 0 0 0 0 0 0 0 0 0 0 3 5 7

GFSNGP_con_mlcape_114.txt.gz
CAPE
0 0 0 0 0 0 0 0 0 0 0 0 1 9 26 1 1 0 0 0 11 79 163 205 359 778 904 1064 1248 1265 1351 1314 1278 1083 791 832 732 522 302 264 175 136 263 646
0 0 0 0 0 0 0 0 0 0 0 63 22 17 46 0 0 0 0 24 54 104 90 152 267 485 371 764 849 1005 1141 1211 1182 1056 651 583 490 379 315 232 109 92 49 27
0 0 0 0 0 0 0 0 0 13 27 2 0 19 0 4 19 0 0 0 22 4 84 82 102 79 128 220 443 577 669 763 888 810 666 535 381 341 206 59 46 90 37 76
0 0 0 0 0 0 0 0 26 18 22 10 14 0 0 118 70 6 1 3 7 1 0 7 3 5 3 12 40 183 291 283 512 603 406 292 372 179 93 100 98 49 13 115
0 0 0 0 0 2 12 5 28 29 15 0 0 3 48 228 56 0 0 0 5 1 0 0 0 3 2 3 5 1 82 112 197 178 144 22 302 313 381 244 92 27 12 22
0 0 0 28 39 27 44 10 45 25 23 18 5 1 73 425 140 25 3 34 23 16 18 0 0 3 1 2 1 1 6 92 182 317 382 450 400 420 401 333 242 241 211 74
0 0 0 56 100 104 32 67 81 125 107 74 39 133 269 441 325 14 2 58 26 12 23 3 0 0 1 0 1 1 28 0 95 276 417 425 426 427 314 362 319 205 77 27
10 15 25 91 120 100 120 146 158 355 224 351 212 435 428 407 395 20 0 0 6 0 3 17 2 0 0 0 0 2 0 4 40 184 219 461 545 501 553 470 344 184 77 2
6 62 134 34 41 41 85 155 284 419 416 448 352 492 411 426 562 0 0 0 7 0 18 1 12 21 0 0 0 0 0 0 17 13 54 260 319 299 174 280 363 229 107 57
0 0 2 48 13 9 62 245 407 432 588 392 483 580 477 597 483 319 1 0 44 34 22 26 0 64 4 0 0 0 0 0 0 0 0 1 37 26 1 0 0 0 3 20
9 0 30 30 2 14 6 48 178 643 712 468 544 492 592 395 561 357 32 5 24 37 86 110 55 65 43 0 0 0 0 0 0 0 0 0 0 11 4 0 0 1 2 4
0 0 0 0 0 0 0 0 29 557 610 695 790 605 495 372 200 187 33 29 10 51 66 112 100 111 12 0 0 0 0 0 0 1 4 0 0 0 0 0 0 0 0 0
0 0 0 0 0 0 4 302 258 754 741 793 659 485 410 238 200 214 3 41 73 37 32 40 84 100 13 0 0 0 0 0 5 9 19 27 34 8 48 0 0 0 0 0
0 0 0 0 0 0 69 180 514 677 894 984 599 398 371 202 280 222 114 16 31 42 48 58 36 63 4 0 0 0 0 0 5 4 2 9 9 9 14 22 21 12 0 0
0 184 45 69 158 27 224 694 757 830 957 948 831 521 336 250 203 183 169 179 49 22 91 115 76 12 0 0 0 0 0 0 0 0 0 0 0 0 0 1 2 5 21 0
127 14 164 463 632 696 939 972 916 859 880 917 766 660 392 491 159 216 509 471 123 104 47 58 19 0 0 0 0 0 0 0 0 0 0 0 0 0 0 0 0 0 0 0
52 10 261 271 449 597 940 1013 965 822 850 821 737 700 627 576 295 307 180 231 72 53 198 186 31 0 0 0 0 0 0 0 0 0 0 0 0 0 0 0 0 0 0 1
183 233 308 318 435 618 814 886 834 814 855 774 665 750 457 400 211 194 96 140 43 229 207 251 256 59 11 2 1 0 3 10 3 1 1 0 0 0 0 0 0 0 0 2
252 181 204 252 440 543 655 653 592 483 632 708 654 306 183 215 206 85 52 99 124 147 190 310 57 20 55 11 0 7 23 31 28 29 25 5 7 7 13 9 0 0 0 0
245 286 267 275 418 482 504 525 548 562 658 562 420 60 12 29 176 232 231 189 188 89 191 158 254 161 35 1 0 0 10 18 23 35 33 0 18 16 9 9 3 3 1 0
151 225 71 55 128 323 510 478 456 456 237 117 16 4 11 69 185 195 88 71 52 57 56 41 26 35 3 4 6 42 31 20 17 28 33 33 30 30 27 26 25 28 27 20
59 179 35 50 41 16 48 213 126 1 0 0 30 116 55 71 145 163 141 87 42 11 20 2 0 0 0 0 31 23 7 7 3 6 14 18 17 11 10 12 18 9 8 11
140 239 201 54 14 21 39 120 73 39 17 25 45 149 178 185 163 71 22 0 0 0 0 0 0 0 0 0 2 7 7 7 4 3 2 5 2 2 4 13 7 9 19 12
114 192 234 117 67 25 10 0 1 1 0 0 0 5 37 25 25 1 0 0 0 0 0 0 0 0 0 0 0 0 0 0 0 0 0 0 0 2 7 13 15 14 7 8
63 43 58 65 14 1 14 8 7 0 0 0 0 4 0 3 15 0 0 0 0 0 0 0 0 0 0 0 0 0 0 0 0 0 0 0 0 0 0 5 21 22 12 3
65 29 25 26 33 14 8 2 0 0 0 0 0 0 0 0 0 0 0 0 0 0 0 0 0 0 0 0 0 0 0 0 0 0 0 0 0 0 0 0 0 0 0 1
55 60 131 85 40 30 30 5 0 0 0 0 0 0 0 0 0 0 0 0 0 0 0 0 0 0 0 0 0 0 0 0 0 0 0 0 0 0 0 0 0 0 0 0

GFSNGP_con_mlcape_117.txt.gz
CAPE
0 0 0 0 0 0 0 0 0 0 0 0 0 13 23 43 36 15 26 6 5 5 13 185 350 340 430 592 761 873 1021 1092 1126 1006 1155 1412 1318 1155 966 871 831 776 866 937
0 0 0 0 0 0 0 0 0 0 0 1 26 26 33 49 15 9 25 11 25 13 10 8 85 207 359 299 471 763 852 976 1085 1045 1215 1038 1088 925 816 628 563 481 431 409
0 0 0 0 0 0 0 0 0 0 4 15 7 20 10 5 14 50 58 33 4 3 9 11 1 5 2 2 3 286 480 669 750 1005 890 891 875 848 795 733 575 417 378 355
0 0 0 0 0 0 0 0 0 9 23 12 0 2 0 8 234 316 71 6 5 9 5 0 0 1 7 3 2 5 146 311 482 502 568 841 874 999 959 831 614 443 391 387
0 0 0 0 0 0 1 10 7 28 39 46 43 4 58 326 489 266 59 46 18 34 22 0 0 0 9 4 2 8 14 92 147 262 95 549 612 793 995 616 653 671 511 361
0 0 0 53 62 13 0 0 73 67 77 58 42 28 56 269 426 297 195 89 49 8 0 0 0 6 30 2 18 3 3 7 12 142 227 343 544 857 782 750 596 488 374 238
0 0 0 0 123 28 0 84 262 97 99 98 104 108 122 296 590 509 230 139 21 15 0 0 20 0 1 10 2 34 54 73 82 107 64 121 710 317 744 505 525 331 187 73
28 31 7 187 112 50 160 217 110 115 185 165 160 152 224 420 649 511 197 48 10 3 0 0 6 33 0 0 0 36 24 86 149 88 265 246 262 211 335 264 324 206 75 47
31 157 247 116 81 2 31 87 125 227 191 129 143 185 372 667 694 611 195 0 7 0 2 0 0 51 36 0 0 25 43 60 126 78 82 248 217 141 204 191 331 323 266 192
1 20 0 21 30 0 1 22 57 135 189 205 166 248 321 625 707 546 281 11 65 47 0 1 0 0 73 0 0 20 15 5 17 1 36 42 190 218 162 150 119 188 250 142
27 30 0 30 41 39 46 0 0 33 197 415 315 413 442 559 703 679 342 137 57 15 28 30 37 0 23 4 0 30 13 6 0 0 0 19 0 66 12 0 0 71 10 33
27 28 32 34 13 11 0 0 0 34 81 402 553 551 507 502 449 460 178 16 10 11 73 7 50 86 68 0 0 21 19 8 2 20 19 6 4 2 0 0 0 0 0 0
6 2 3 0 0 0 0 0 31 225 298 570 736 619 544 567 470 309 232 85 0 68 106 134 130 117 19 3 6 32 14 97 35 13 20 14 16 22 133 0 0 0 0 0
0 0 0 0 0 0 0 0 80 240 683 864 851 671 658 546 601 500 360 191 59 112 91 135 142 84 0 0 1 45 26 0 22 8 0 1 1 3 15 18 35 10 0 0
2 0 0 21 31 55 38 4 46 486 748 946 961 814 641 516 397 397 362 313 191 191 120 183 79 0 0 0 5 11 3 0 1 0 0 0 0 0 0 1 0 0 5 0
95 57 43 16 97 195 177 122 269 579 729 842 965 917 623 518 400 306 381 423 183 82 112 88 5 0 0 0 1 7 0 0 0 0 1 0 0 0 0 0 0 0 1 6
47 14 12 141 161 235 379 380 446 688 810 792 932 798 585 418 267 340 243 394 187 129 102 74 65 9 11 0 0 23 25 22 0 6 2 0 0 0 0 0 0 0 0 1
106 128 147 168 188 273 539 837 922 970 941 932 851 878 716 597 281 486 250 408 143 155 160 182 260 162 41 36 8 26 19 16 21 32 31 25 2 0 5 10 6 0 0 0
332 365 318 281 270 338 540 779 967 964 960 920 858 837 557 803 619 299 94 114 174 92 297 269 168 83 196 0 0 26 8 20 7 9 14 25 22 31 39 28 30 22 15 7
429 353 372 381 425 463 446 486 707 797 828 801 823 676 566 400 51 16 35 239 212 238 244 232 265 229 97 4 0 1 19 12 16 28 36 18 15 2 18 24 18 18 22 22
253 346 338 382 251 276 434 637 668 571 528 528 473 314 192 26 63 81 9 88 191 169 118 12 0 0 43 0 2 19 1 1 8 19 14 12 9 3 4 3 4 10 0 0
254 188 35 4 3 43 203 244 256 255 227 139 33 0 0 2 24 49 81 130 26 0 12 0 0 0 0 0 11 7 10 4 6 10 4 0 0 0 0 0 2 8 0 0
190 300 120 59 128 41 8 13 23 6 0 2 2 18 30 36 35 43 27 0 0 0 0 0 0 0 0 0 0 0 0 0 0 0 0 0 0 0 0 2 0 0 4 6
353 343 201 145 74 54 6 11 7 2 0 0 0 1 73 18 2 0 0 0 0 0 0 0 0 0 0 0 0 0 0 0 0 0 0 0 0 0 0 0 0 0 3 10
137 142 158 169 114 93 35 15 0 1 2 1 0 0 0 0 0 0 0 0 0 0 0 0 0 0 0 0 0 0 0 0 0 0 0 0 0 0 0 0 0 0 0 0
86 92 43 35 18 4 0 0 0 0 0 0 0 0 0 0 0 0 0 0 0 0 0 0 0 0 0 0 0 0 0 0 0 0 0 0 0 0 0 0 0 0 0 0
78 95 73 26 13 22 0 0 0 0 0 0 0 0 0 0 0 0 0 0 0 0 0 0 0 0 0 0 0 0 0 0 0 0 0 0 0 0 0 0 0 0 0 0

GFSNGP_con_mlcape_123.txt.gz
CAPE
0 0 0 0 0 0 0 0 0 0 0 0 2 2 1 0 0 0 0 0 0 0 0 0 0 0 0 0 0 0 0 0 21 115 235 435 618 807 1106 1101 854 861 918 921
0 0 0 0 0 0 0 0 0 0 0 5 0 0 0 0 0 0 0 0 0 0 0 0 0 0 0 0 0 0 0 3 7 0 55 76 333 805 856 969 841 762 832 859
0 0 0 0 0 0 0 0 0 0 0 7 0 0 0 2 42 22 45 11 1 0 0 0 0 0 0 0 7 0 6 1 14 1 0 0 77 293 988 838 811 772 734 680
0 0 0 0 0 0 0 0 0 0 0 0 0 0 0 22 56 66 79 29 1 0 0 0 0 0 0 0 3 0 0 7 14 14 0 0 0 48 503 524 484 530 557 585
0 0 0 0 0 0 0 0 0 0 0 0 0 0 0 0 6 46 76 97 55 0 0 0 0 0 0 0 0 0 0 0 18 1 5 2 18 0 95 192 243 286 385 314
0 0 0 0 0 0 0 3 45 25 13 3 0 1 0 0 51 192 307 166 99 0 0 0 0 0 0 0 0 0 0 2 23 16 30 5 52 19 20 101 178 186 282 221
0 0 0 0 0 17 2 8 35 8 14 8 0 0 0 0 118 408 547 254 58 0 0 0 0 0 0 0 0 0 1 25 28 21 59 41 0 0 0 76 201 179 127 57
7 1 0 5 53 136 109 94 21 0 0 0 0 0 0 155 297 602 647 315 38 0 0 0 0 0 0 0 0 0 14 56 56 47 50 85 16 11 0 19 135 69 26 5
47 11 59 22 14 119 45 43 33 7 0 15 0 7 0 15 644 753 666 451 18 0 0 0 0 0 0 0 1 0 37 74 68 79 106 67 50 61 81 58 80 113 27 0
41 67 41 10 151 110 28 10 9 0 0 0 3 7 0 0 392 606 269 79 16 13 0 0 0 0 0 23 15 12 59 87 116 98 106 99 0 0 32 58 106 113 48 6
3 6 52 244 167 29 39 8 0 0 0 0 1 0 0 0 335 626 516 229 111 93 0 0 9 6 11 72 17 30 87 67 21 21 147 15 0 0 0 0 0 11 0 0
0 0 15 52 21 0 3 8 0 0 0 0 0 0 27 87 484 429 401 175 124 37 0 0 43 42 80 0 16 55 114 61 16 2 15 116 13 0 0 0 0 0 0 0
25 9 57 0 6 0 0 0 0 0 0 0 0 10 318 496 386 423 287 118 84 18 0 61 90 48 13 0 28 81 101 57 11 0 2 0 2 47 30 12 0 0 0 0
7 70 75 14 5 25 4 0 0 0 0 0 0 45 489 384 199 305 240 97 79 1 2 119 149 48 0 8 45 36 0 0 0 0 0 0 0 3 21 38 24 7 0 0
0 100 59 36 43 0 2 11 73 11 0 0 0 211 404 198 246 226 278 268 114 47 176 111 110 5 10 24 49 19 0 0 0 0 0 0 0 0 0 0 1 40 4 0
20 99 90 36 12 68 104 74 49 111 62 36 15 55 12 1 0 0 11 101 134 147 16 88 48 16 29 50 70 54 92 8 1 8 10 1 0 0 0 0 0 7 15 10
0 31 38 0 0 71 282 447 307 215 146 34 1 0 0 0 2 0 0 4 163 44 16 37 39 105 132 70 23 32 19 34 28 16 15 6 17 17 7 17 14 10 7 39
0 0 7 27 27 51 240 333 288 74 21 4 1 0 1 0 0 0 0 14 47 0 0 24 11 45 12 4 2 6 14 2 12 15 13 16 14 10 4 7 12 3 10 10
0 0 0 11 615 567 680 701 489 285 86 38 7 0 1 1 0 0 3 101 40 0 0 0 22 66 29 0 0 8 16 1 7 11 13 7 7 1 0 1 10 8 9 5
0 0 1 537 538 686 575 538 491 188 276 60 8 2 2 0 0 81 67 46 41 16 1 0 0 0 0 0 0 0 0 2 0 0 0 0 0 0 0 0 2 0 0 0
0 11 234 321 403 422 153 335 258 21 134 146 8 56 99 22 0 0 0 0 0 0 0 0 0 0 0 0 0 0 0 0 0 0 0 0 0 0 0 0 0 0 0 0
204 197 284 283 185 65 0 0 0 23 43 59 139 54 5 0 0 0 0 0 0 0 0 0 0 0 0 0 0 0 0 0 0 0 0 0 0 0 0 0 0 0 0 0
123 34 109 22 7 7 3 0 5 2 0 14 0 0 0 0 0 0 0 0 0 0 0 0 0 0 0 0 0 0 0 0 0 0 0 0 0 0 0 0 0 0 0 0
97 45 32 4 14 3 0 0 0 0 0 0 0 3 3 0 0 0 0 0 0 0 0 0 0 0 0 0 0 0 0 0 0 0 0 0 0 0 0 0 0 0 0 0
129 80 85 34 12 6 9 0 0 0 0 0 0 0 0 0 0 0 0 0 0 0 0 0 0 0 0 0 0 0 0 0 0 0 0 0 0 0 0 0 0 0 0 0
45 23 2 0 2 1 0 0 0 0 0 0 0 0 0 0 0 0 0 0 0 0 0 0 0 0 0 0 0 0 0 0 0 0 0 0 0 0 0 0 0 0 0 0
12 4 4 0 0 0 0 0 0 0 0 0 0 0 0 0 0 0 0 0 0 0 0 0 0 0 0 0 0 0 0 0 0 0 0 0 0 0 0 0 0 0 0 0